Location: Hurstbourne Priors
(51.2000°N, 1.3667°W)
Time: 22:45:44
(UTC+00:00)

Altair - Pass Details

Date: 19 April 2021
Orbit: 1501 x 1683 km, 47.2° (Epoch: 13 May)

Event Time Altitude Azimuth Distance (km) Brightness Sun altitude
Rises 11:34:08 0° 285° (WNW) 4,763 9.9 49.7°
Reaches altitude 10° 11:37:25 10° 279° (W) 3,752 9.5 49.8°
Maximum altitude 11:46:08 44° 212° (SSW) 2,008 9.5 50.0°
Drops below altitude 10° 11:54:37 10° 144° (SE) 3,651 10.2 50.1°
Sets 11:57:46 0° 138° (SE) 4,624 10.5 50.1°
